Temp
10 10 10 9 9 9 9 9 9 8 8 7 7 7 7 6 6 6 6 6 6 6 6 5 5 5 5 6 6 5 5 5 6 6 6 6 6 6 6 5 5 5 5 5 5 5 5 5 5 6 7 7 7 7 7 6 6 6 6 6 6 6 6 6 6 6 5 5 5
10 10 9 9 8 8 8 8 8 8 7 7 6 6 6 6 5 5 6 6 6 5 4 4 4 5 5 5 5 5 5 5 5 6 6 6 5 5 5 4 4 4 5 5 5 5 4 5 5 6 6 6 6 6 6 6 6 6 6 6 6 6 6 6 5 5 5 5 5
10 9 9 9 8 8 8 8 8 7 7 6 6 6 6 5 5 5 5 5 5 4 4 4 4 5 5 5 5 5 5 5 5 5 5 5 5 4 4 3 3 3 3 3 3 4 4 5 6 6 6 6 6 6 6 6 6 6 6 6 5 5 5 5 5 5 5 5 4
10 9 9 8 8 8 8 8 7 7 6 6 6 6 6 5 5 5 5 5 5 4 4 4 5 5 5 5 5 5 5 5 5 5 5 5 5 4 4 3 2 2 1 1 2 3 4 5 5 5 5 6 6 7 6 6 6 6 6 5 5 5 5 5 5 5 5 4 4
10 10 9 9 9 8 8 8 8 7 7 7 6 6 5 5 5 5 5 5 4 4 4 5 5 5 5 5 5 5 4 4 4 4 4 4 5 5 4 4 3 2 1 1 2 3 4 5 5 4 4 5 6 6 6 6 6 6 5 5 5 5 5 5 4 4 4 4 4
10 10 10 9 9 9 9 9 9 8 8 8 7 6 6 6 6 5 4 4 4 4 5 5 5 5 5 5 4 4 4 4 4 5 5 5 5 5 5 4 4 3 2 3 4 5 5 5 5 4 4 5 5 6 6 6 6 5 5 5 5 5 5 4 4 4 4 4 4
10 10 10 9 9 9 9 9 9 9 8 8 7 7 7 6 6 5 5 5 5 5 5 5 5 5 5 5 5 5 5 5 5 6 6 6 5 5 5 4 3 3 3 4 5 5 5 5 4 4 5 5 5 5 5 5 5 5 5 5 4 4 4 4 4 4 4 4 4
9 10 10 9 9 9 9 9 8 8 7 7 7 7 7 7 7 6 5 5 5 5 5 5 5 6 6 6 6 6 6 6 6 6 6 6 6 5 5 4 4 4 4 5 5 5 5 5 5 5 5 5 5 5 5 5 5 5 5 4 4 4 4 4 4 4 4 3 3
9 9 9 9 9 8 8 8 8 7 7 6 7 7 8 7 7 6 5 5 5 5 5 5 6 6 6 6 6 6 6 6 6 6 6 5 5 5 5 4 4 5 5 5 5 5 5 5 5 5 5 5 5 5 5 5 5 5 4 4 4 4 4 4 4 3 3 3 3
9 9 9 8 8 8 8 8 8 8 7 7 7 7 7 7 7 6 6 6 5 5 5 5 6 6 6 6 6 6 5 6 5 5 5 5 5 5 5 5 5 5 5 5 5 5 5 5 5 5 5 5 5 5 5 5 5 5 4 4 4 4 3 3 3 3 3 3 3
9 9 8 8 8 8 8 8 8 8 7 7 7 7 7 7 6 6 6 6 5 5 5 5 6 6 6 6 6 6 6 5 5 5 5 5 5 5 5 5 5 5 5 5 5 5 5 5 5 5 5 5 5 5 5 5 5 5 4 4 4 4 3 3 3 3 3 2 2
8 9 8 7 7 7 7 7 7 7 7 7 7 6 6 6 6 6 6 6 5 5 6 6 6 6 6 6 6 6 5 5 5 5 5 5 5 5 5 6 6 6 6 6 6 6 6 6 6 6 5 5 5 5 5 5 5 5 4 4 4 4 3 3 3 2 2 2 2
8 8 8 7 7 7 7 7 7 7 7 7 6 6 6 6 6 6 6 6 6 5 5 6 6 6 6 6 6 6 5 5 5 5 6 5 5 5 6 6 6 6 6 6 6 6 6 6 6 6 5 5 5 5 5 5 5 5 4 4 4 3 3 3 2 2 2 2 1
8 8 7 7 7 7 7 7 6 6 7 7 6 6 6 5 5 6 6 6 6 5 5 5 5 6 6 6 6 6 6 5 5 6 6 6 5 6 6 6 7 7 7 7 7 7 6 6 6 6 6 5 5 5 5 5 5 4 4 4 3 3 3 2 2 2 2 1 1
8 8 7 7 7 7 7 6 6 6 7 6 6 6 6 5 5 5 6 6 6 5 5 5 5 6 6 6 7 6 6 6 6 6 6 6 6 6 6 7 7 7 7 7 7 7 7 6 6 6 6 5 5 5 4 4 4 4 4 4 3 3 3 2 2 2 1 1 1
8 8 7 7 7 7 6 6 6 6 7 6 6 6 6 5 5 5 6 6 6 5 5 5 5 6 6 6 6 6 6 6 6 6 6 6 6 6 6 7 7 7 7 7 7 6 6 6 6 6 5 5 5 4 4 4 4 4 4 3 3 3 2 2 2 1 1 1 1
7 7 8 8 8 7 7 6 7 7 7 6 6 6 6 6 5 6 6 6 5 5 5 5 6 6 6 6 6 6 6 6 6 6 6 6 6 6 6 7 7 7 7 7 7 6 6 6 5 5 5 5 4 4 4 3 3 3 3 3 3 2 2 2 1 1 1 1 1
8 8 8 8 8 7 7 7 7 7 6 6 6 6 6 6 6 6 6 6 5 5 5 5 6 6 6 6 6 6 6 6 6 6 7 7 7 6 6 7 7 7 7 7 7 6 6 5 5 5 5 4 4 4 3 3 3 3 3 2 2 2 2 1 1 1 1 1 1
8 8 7 7 7 7 7 7 7 7 6 6 6 6 6 6 6 6 6 6 6 6 6 6 6 6 6 6 6 6 6 6 6 7 7 7 7 6 6 6 7 7 7 7 6 6 5 5 5 4 4 4 4 3 3 3 3 2 2 2 2 2 1 1 1 1 1 1 1
9 8 8 7 8 8 8 7 8 7 7 6 6 6 6 6 6 6 6 6 6 6 6 6 6 6 6 6 6 6 6 7 7 7 7 7 6 6 6 6 7 7 7 6 6 6 5 5 4 4 4 4 3 3 3 2 2 2 2 2 1 1 1 1 1 1 0 0 0
10 9 8 8 8 8 8 8 8 7 7 6 6 6 6 6 6 6 6 6 6 6 6 7 7 7 6 6 6 7 7 7 7 8 7 7 6 6 6 6 7 7 6 6 6 5 5 5 4 4 4 4 3 3 3 2 2 2 1 1 1 1 1 1 0 0 0 0 0
10 10 9 9 8 8 8 8 8 7 7 6 6 6 6 6 6 6 6 6 6 6 6 7 7 7 7 7 7 7 7 7 7 8 8 7 6 6 6 7 7 6 6 6 5 5 5 4 4 4 4 3 3 3 2 2 2 1 1 1 1 1 0 0 0 0 -0 -0 -0
10 10 10 9 9 8 8 8 8 7 7 7 6 6 6 6 6 7 6 6 6 6 6 7 7 7 7 7 7 7 7 7 7 7 7 7 6 6 6 7 7 6 6 5 5 5 4 4 4 4 4 4 3 3 2 2 2 1 1 1 0 0 0 -0 -0 -0 -0 -1 -1
8 9 10 10 9 8 8 8 8 7 7 7 7 7 7 7 7 7 6 6 6 6 6 7 7 7 7 7 7 7 7 7 7 7 6 6 6 6 6 6 6 6 6 5 5 5 5 4 4 4 4 4 3 3 2 2 2 1 1 1 0 0 -0 -0 -1 -1 -1 -1 -1
7 8 8 9 9 8 8 8 8 7 7 7 7 7 7 7 7 6 6 6 6 6 6 7 7 7 7 7 7 7 7 7 7 6 6 6 6 6 6 6 6 6 6 5 5 5 5 5 5 4 4 3 3 3 2 2 2 1 1 1 0 0 -0 -1 -1 -1 -1 -1 -2
7 7 8 8 8 8 8 7 7 7 7 7 7 7 7 7 7 6 6 5 5 6 6 6 6 6 6 7 7 7 7 7 7 6 6 5 5 6 6 6 6 6 5 5 5 5 5 5 5 4 4 4 3 2 2 1 1 1 1 1 0 0 -0 -1 -1 -1 -2 -2 -2
8 8 9 9 8 8 7 7 7 7 7 7 7 7 7 7 7 6 6 5 5 6 6 6 6 6 6 6 7 7 7 7 6 6 6 5 5 6 6 6 6 6 5 5 5 5 5 5 5 4 4 4 3 2 2 1 1 1 0 0 0 -0 -0 -1 -1 -2 -2 -2 -3
8 9 9 10 9 8 7 7 7 7 8 7 7 7 7 7 6 6 6 5 5 5 5 6 6 6 6 6 6 7 7 6 6 6 6 6 6 6 6 6 6 5 5 5 5 5 5 4 4 4 4 4 3 2 2 1 1 0 0 -0 -0 -1 -1 -1 -1 -2 -2 -3 -3
8 9 9 9 9 8 7 7 7 8 8 7 7 7 6 6 6 6 5 5 5 5 5 5 5 5 5 6 6 6 6 6 5 5 5 5 6 6 6 6 5 5 5 5 5 4 4 4 4 4 3 3 3 2 1 1 1 0 -0 -0 -1 -1 -1 -1 -2 -2 -3 -3 -3
7 8 9 9 8 8 8 7 8 8 8 7 7 6 6 6 5 5 5 5 5 5 5 5 5 5 5 5 6 6 6 5 5 5 5 5 5 6 6 6 5 5 5 4 4 4 4 4 3 3 3 3 2 2 1 1 0 0 -0 -1 -1 -1 -1 -2 -2 -3 -3 -3 -3
7 8 8 8 8 8 8 8 8 8 7 7 6 6 6 5 5 5 5 5 5 5 5 5 5 5 5 5 5 5 5 5 5 4 4 5 5 5 5 5 5 4 4 4 4 4 3 3 3 2 2 2 2 1 1 1 0 -0 -0 -1 -1 -2 -2 -2 -3 -3 -3 -3 -4
6 7 8 8 8 8 8 8 7 7 7 6 6 6 5 5 5 5 5 5 5 5 5 5 5 5 5 5 5 5 5 4 4 4 4 4 4 4 4 4 4 4 4 3 3 3 3 2 2 2 2 2 1 1 0 0 -0 -1 -1 -1 -2 -2 -2 -3 -3 -3 -4 -4 -4
6 7 8 8 8 7 8 7 7 7 6 6 6 6 5 5 4 4 4 4 5 5 5 5 4 4 4 4 4 4 4 4 4 3 3 3 4 4 3 3 3 3 3 3 3 2 2 2 2 2 1 1 1 0 -0 -0 -1 -1 -2 -2 -2 -3 -3 -3 -3 -4 -4 -4 -4
6 6 7 8 8 7 7 7 7 6 6 6 5 5 5 4 4 4 4 4 5 5 5 5 5 5 5 5 4 4 3 3 3 3 3 3 3 3 3 2 2 2 2 2 2 2 2 2 1 1 1 0 0 -0 -0 -1 -1 -2 -2 -2 -3 -3 -4 -4 -4 -4 -4 -5 -5
6 6 6 7 7 7 7 7 6 6 6 5 5 5 4 4 3 3 4 4 5 5 5 5 5 5 5 5 4 4 3 3 2 2 2 2 2 2 2 1 1 1 2 2 1 1 1 1 1 1 0 0 -0 -1 -1 -1 -1 -2 -2 -3 -3 -4 -4 -4 -4 -5 -5 -5 -5
6 5 5 5 6 6 6 6 6 6 5 5 5 4 4 4 4 4 4 5 5 5 4 4 4 4 3 3 3 3 3 2 1 1 1 1 2 2 1 1 1 1 1 1 1 1 1 1 1 0 0 -0 -1 -1 -1 -1 -2 -2 -3 -3 -4 -4 -4 -5 -5 -5 -5 -6 -6
5 5 5 5 6 6 6 6 5 5 5 4 4 4 4 4 4 4 4 4 4 4 4 3 3 2 2 2 3 3 2 2 1 1 1 1 2 2 1 0 0 -0 0 1 1 1 1 1 0 0 -0 -0 -1 -1 -1 -2 -2 -3 -3 -3 -4 -4 -5 -5 -5 -5 -6 -6 -6
5 5 5 6 6 6 5 5 5 4 4 4 4 4 4 4 4 4 4 4 3 3 3 2 2 2 2 2 2 2 2 2 1 1 1 1 2 2 1 0 -0 -1 -0 0 0 0 0 0 0 0 0 -0 -0 -1 -1 -2 -2 -3 -3 -4 -4 -5 -5 -5 -6 -6 -6 -6 -6
5 5 6 7 6 6 5 5 5 4 4 4 4 4 4 4 4 4 4 3 3 3 3 2 1 2 2 2 2 2 1 1 1 1 1 1 2 2 1 0 -1 -1 -1 -0 0 0 0 0 0 -0 -0 -0 -0 -1 -1 -2 -2 -3 -4 -4 -5 -5 -5 -6 -6 -6 -6 -7 -7
6 6 6 7 6 6 5 4 4 4 4 4 4 4 4 4 4 4 3 3 3 3 3 2 2 2 2 2 2 1 0 -0 -0 1 1 2 1 1 1 1 -0 -1 -1 -1 -0 0 0 -0 -0 -0 -0 -0 -0 -1 -1 -2 -2 -3 -4 -4 -5 -5 -6 -6 -6 -7 -7 -7 -7
6 6 6 6 6 5 5 4 4 4 4 4 4 4 4 4 4 4 3 3 3 2 2 2 1 2 2 2 1 0 -0 -1 -1 -0 1 1 1 1 1 1 -1 -1 -2 -1 -0 -0 -0 -0 -0 -0 -0 -0 -1 -1 -1 -2 -2 -3 -4 -4 -5 -5 -6 -6 -6 -7 -7 -7 -7
Height
704 705 707 708 710 712 713 714 716 718 720 721 723 726 728 729 730 731 733 736 737 737 737 738 739 741 743 746 748 751 753 754 755 756 756 757 758 761 763 765 767 768 770 772 773 774 776 779 782 784 785 786 786 788 789 790 791 793 794 795 796 797 798 799 800 801 802 803 804
705 706 708 709 711 712 713 715 717 719 721 723 726 728 730 731 731 733 735 738 738 738 738 738 740 742 744 747 749 752 754 755 756 756 756 757 759 761 763 766 768 770 771 772 773 776 778 782 784 785 786 787 787 788 790 791 792 793 794 795 796 797 798 799 800 801 802 803 803
706 707 708 710 711 712 713 714 717 719 722 725 728 731 733 733 733 734 736 738 738 738 738 739 741 743 745 747 750 753 755 756 755 755 755 756 758 760 763 766 768 770 772 773 776 779 782 785 786 786 786 787 788 789 790 791 792 793 793 794 795 797 798 799 800 801 802 803 803
706 707 709 710 711 711 711 713 715 718 722 725 729 733 735 736 736 736 738 739 740 739 740 741 742 743 745 747 750 753 755 756 756 755 755 755 757 760 763 767 769 772 774 776 778 781 783 785 786 786 787 787 788 789 789 790 791 792 793 794 795 797 798 799 800 801 801 802 802
705 707 708 710 710 710 711 712 714 717 721 724 728 733 736 738 738 739 740 741 741 741 741 742 743 744 745 747 749 752 754 756 757 757 757 757 759 762 765 769 772 775 776 778 779 781 783 784 785 785 786 787 788 788 789 790 790 791 793 794 795 797 798 798 799 800 800 801 802
704 705 706 707 708 709 711 712 714 717 720 723 726 730 735 738 740 741 742 743 742 741 741 742 742 743 745 747 749 752 754 756 757 758 758 759 761 763 767 770 772 774 776 777 779 780 782 783 784 784 786 787 787 788 788 789 790 791 792 793 795 796 797 798 798 799 799 800 801
703 703 704 705 705 706 708 710 713 715 718 719 722 726 731 735 738 741 742 743 743 742 741 741 741 742 744 747 750 753 754 756 756 757 758 760 762 764 766 769 771 773 775 776 778 779 780 781 783 784 785 786 786 787 788 788 789 790 791 793 794 795 796 796 797 798 798 799 800
702 703 703 704 704 705 706 708 710 712 714 716 719 722 726 730 734 737 740 743 743 742 741 740 740 741 743 747 750 752 753 753 754 756 758 759 761 763 766 768 770 772 773 775 776 777 778 780 781 782 783 784 785 786 787 788 789 789 790 791 793 793 794 795 796 797 798 799 800
703 703 703 703 703 704 705 706 708 710 713 715 718 721 723 727 729 732 735 738 740 740 740 739 739 740 742 745 748 750 751 752 753 754 756 758 760 763 765 767 768 770 772 773 775 776 777 778 779 780 781 782 783 785 786 787 788 789 789 790 791 792 793 794 795 796 798 798 799
703 704 703 703 702 703 703 705 706 708 710 714 717 719 722 724 726 727 729 732 735 737 738 739 740 741 742 744 747 748 750 751 752 753 755 758 760 762 763 765 767 769 771 772 773 775 776 777 778 779 780 782 783 784 786 787 787 788 788 789 790 791 793 794 795 796 797 798 799
701 703 703 703 703 703 703 704 705 707 709 712 716 718 720 722 723 724 726 728 730 733 736 738 739 740 742 744 746 748 749 751 752 753 755 757 759 761 762 764 766 768 769 771 772 774 775 776 777 779 780 782 783 784 785 785 786 787 788 789 790 791 792 793 795 796 797 798 799
698 701 702 702 702 702 703 704 705 707 708 711 714 717 719 720 721 723 724 725 727 729 732 735 737 738 740 742 745 747 749 750 752 753 755 757 758 760 761 763 765 766 768 770 772 773 774 775 777 778 780 781 782 783 784 784 785 786 787 788 789 791 792 793 795 796 797 798 799
696 698 699 700 701 701 703 704 706 707 708 710 713 715 717 718 719 720 722 723 724 727 729 732 733 735 737 739 743 745 747 749 751 753 754 756 757 758 760 762 764 766 768 769 771 772 773 775 776 778 779 781 782 782 783 783 784 785 787 788 789 791 792 793 795 796 797 798 798
694 696 697 699 699 700 701 703 705 706 707 709 712 713 715 716 718 719 720 721 723 725 727 730 732 733 735 737 740 743 745 748 750 752 753 755 756 758 759 761 763 764 766 768 769 771 773 774 776 777 778 780 781 782 783 783 784 785 786 788 789 791 792 793 794 795 796 797 798
692 693 694 697 698 699 700 702 703 705 706 707 709 711 713 715 717 718 719 720 722 723 726 728 730 733 734 736 738 740 743 746 748 750 752 753 755 757 758 760 762 763 765 767 768 770 772 774 775 777 778 779 780 781 782 783 784 785 787 788 789 791 792 793 794 795 796 797 797
690 690 691 693 695 697 698 699 701 703 703 705 707 709 711 713 716 717 718 719 721 723 724 727 729 731 733 735 737 739 741 744 746 748 750 752 754 755 757 758 760 762 763 765 768 769 772 773 775 777 778 779 780 781 782 783 785 786 787 788 789 791 792 793 794 795 795 796 796
688 688 688 689 691 693 694 696 698 700 701 702 704 706 708 711 713 716 717 718 719 721 723 725 727 730 732 735 737 738 740 743 745 747 748 750 752 753 755 757 758 760 762 764 766 768 771 773 775 777 778 779 780 781 782 783 785 786 787 788 789 790 792 793 793 794 794 795 795
688 687 687 687 688 689 691 693 695 697 698 700 702 703 705 708 711 713 715 717 717 718 720 723 726 728 731 733 735 738 739 742 743 745 747 749 750 752 753 755 757 759 761 763 765 768 770 772 774 776 778 779 780 781 783 783 785 786 787 788 789 790 791 792 793 793 794 794 794
685 685 685 685 686 687 688 690 692 694 696 698 700 701 703 705 708 710 713 715 715 716 718 721 724 727 729 731 734 736 738 740 742 743 746 748 749 751 752 753 756 758 760 762 764 767 769 771 773 776 778 779 780 781 783 783 784 785 787 788 788 789 790 791 792 792 793 793 793
683 683 683 683 684 685 686 688 689 692 694 697 699 700 702 703 706 708 710 712 713 714 716 719 722 724 727 730 733 735 738 739 741 743 745 747 748 750 751 753 754 757 759 761 763 766 768 770 773 775 777 778 779 781 782 783 784 785 786 787 788 788 789 790 791 792 792 793 793
680 680 680 680 682 683 684 686 687 689 692 695 697 699 701 703 704 706 708 709 711 713 714 717 719 722 725 728 731 734 737 739 741 742 744 746 748 749 750 752 753 755 758 760 762 765 767 769 772 774 776 777 778 779 780 782 783 783 784 786 787 788 788 789 790 791 792 792 792
678 678 678 678 680 682 683 684 686 688 689 692 695 698 700 702 703 705 707 708 710 712 713 714 717 720 723 726 729 733 736 738 740 742 743 745 747 748 750 751 753 754 757 759 761 763 766 768 771 773 774 776 777 778 779 780 781 782 783 784 785 787 788 789 790 790 791 791 792
676 677 677 677 679 680 682 684 685 687 688 690 693 696 698 700 702 704 707 708 709 710 711 713 715 718 721 725 728 731 734 737 739 741 743 745 747 748 749 750 751 753 755 758 760 762 765 767 769 772 773 775 776 777 778 779 780 781 782 783 784 786 787 788 789 790 790 791 791
675 676 677 678 678 680 682 683 684 686 687 689 691 693 696 698 701 704 706 707 708 709 711 713 715 718 721 724 728 731 733 736 738 741 743 744 746 747 748 749 750 752 754 757 759 761 763 765 768 770 772 773 775 776 777 778 779 780 781 783 784 785 787 788 788 789 790 790 790
676 677 677 678 678 680 681 682 683 685 686 688 689 691 694 696 699 702 704 705 707 708 710 712 715 718 721 724 727 730 733 735 737 739 741 743 744 745 746 747 749 751 753 755 758 760 762 764 766 768 770 772 774 775 776 778 778 779 781 782 783 784 786 787 788 789 789 789 789
675 675 675 676 677 678 679 681 682 683 685 687 688 690 692 694 697 700 702 703 705 708 710 713 715 718 721 724 727 729 732 734 736 738 739 741 742 743 744 746 748 750 752 754 757 759 761 763 765 767 769 771 773 774 775 777 778 779 780 782 783 784 785 786 787 788 788 789 789
671 671 671 672 673 674 676 679 681 682 683 685 687 688 690 693 696 698 700 702 704 707 710 713 716 718 721 723 725 728 730 733 735 736 738 739 740 741 743 744 747 749 751 754 756 758 761 763 765 767 768 770 771 773 774 776 777 778 780 781 782 783 785 786 787 787 788 788 789
668 668 668 668 669 671 673 676 678 680 682 683 685 687 689 692 694 697 699 701 704 707 710 713 716 718 720 722 723 725 728 730 733 735 736 737 738 739 741 743 746 748 751 753 755 758 760 763 765 767 768 769 770 772 773 774 776 778 779 780 782 783 784 785 786 787 787 788 788
665 665 665 666 667 668 670 673 676 678 680 682 684 686 689 692 694 696 698 701 704 707 709 712 715 717 719 720 721 723 726 728 731 733 735 736 737 739 741 743 746 748 751 753 755 758 760 762 764 766 768 768 770 771 773 774 775 777 778 779 781 782 783 784 785 786 787 787 788
664 663 663 664 665 666 668 671 673 676 678 681 684 687 689 692 694 696 698 700 703 705 707 710 713 715 717 718 719 722 724 727 729 732 733 735 737 739 741 744 746 749 751 753 755 757 759 762 764 765 767 768 769 770 772 773 774 776 777 779 780 782 783 784 785 785 786 786 787
663 663 663 662 663 665 667 670 673 675 678 681 684 687 689 691 693 695 697 699 702 704 707 709 711 713 714 716 718 721 723 726 728 731 733 734 737 739 742 744 747 749 751 753 755 757 759 761 763 764 766 767 768 769 771 772 774 775 777 778 779 781 782 783 784 785 785 786 787
662 663 662 662 662 663 666 669 672 675 678 680 684 687 689 691 693 695 697 699 701 704 707 709 710 711 713 715 718 720 723 725 728 730 732 734 737 739 742 745 748 749 751 753 754 756 758 760 762 763 765 766 767 769 770 772 773 774 776 778 779 780 781 782 783 784 785 786 786
660 661 662 662 661 662 664 668 671 674 677 680 683 686 688 690 693 695 698 699 701 703 706 708 709 710 712 714 717 720 723 725 727 730 732 734 737 739 742 745 748 749 751 752 753 755 757 758 760 762 763 765 767 768 770 771 773 774 775 777 778 779 780 782 783 783 784 785 786
657 659 661 661 662 662 663 666 668 672 675 679 682 684 687 689 692 695 697 699 700 702 704 706 708 709 711 713 716 719 722 725 727 730 732 734 737 739 742 745 748 749 750 752 753 754 756 758 759 761 763 764 766 768 769 770 772 773 775 776 778 779 780 781 782 783 784 785 786
657 658 660 661 662 663 663 665 667 669 673 676 679 683 685 688 690 693 695 697 698 701 704 706 708 710 712 714 717 719 722 725 727 729 732 734 736 739 742 745 747 748 750 751 752 753 755 756 758 760 761 763 765 767 768 769 771 773 774 775 777 778 779 780 782 783 783 784 785
657 658 659 661 662 663 663 664 666 668 671 673 677 679 682 685 688 691 693 695 697 700 703 707 709 712 714 717 719 720 722 724 727 729 732 734 736 738 741 744 746 748 749 750 751 752 754 755 757 759 760 762 764 766 767 769 770 772 773 775 776 777 778 780 781 782 783 784 784
656 656 657 659 660 661 662 663 665 667 669 672 674 676 679 683 686 689 691 693 695 699 703 707 710 713 715 718 719 721 722 724 726 729 732 733 735 738 740 743 746 747 748 749 750 751 753 754 756 758 759 761 763 765 767 768 770 772 773 774 776 777 778 779 780 781 782 783 784
654 654 655 656 657 659 660 662 664 666 668 670 672 674 677 680 683 687 689 691 693 698 702 706 710 713 715 717 719 721 723 724 726 728 731 733 734 736 739 742 744 746 747 748 749 751 752 754 755 757 758 760 762 764 766 768 769 771 773 774 775 776 778 779 780 781 782 782 783
651 652 652 653 654 656 659 661 663 664 666 668 671 673 676 678 681 684 686 689 692 696 700 705 708 712 715 717 719 721 723 725 727 728 730 732 733 736 738 740 743 744 746 747 748 750 752 753 755 757 758 759 761 763 765 767 768 770 772 773 774 776 777 778 779 780 781 782 783
649 649 650 650 651 653 658 661 662 663 664 667 669 672 674 676 679 682 685 688 692 695 699 703 708 712 715 717 718 720 723 726 728 728 729 731 733 735 737 739 741 743 745 747 748 749 751 753 754 756 757 759 761 763 764 766 768 769 771 772 773 775 776 778 778 779 780 781 782
647 648 648 648 648 650 655 659 661 663 663 665 667 669 672 675 678 681 684 688 692 696 700 703 707 711 714 716 717 719 722 726 728 728 729 730 733 735 737 738 740 742 744 746 748 749 751 752 753 755 756 758 760 762 764 765 767 768 770 771 773 774 775 777 778 778 779 780 781
Wind_Speed
5 6 6 6 8 9 10 9 9 8 8 8 9 13 16 19 20 21 22 24 25 26 27 28 28 29 30 31 32 32 33 34 34 35 33 32 29 26 23 20 18 17 16 15 13 12 11 11 13 15 17 17 17 17 16 16 16 16 16 16 15 15 14 14 14 14 13 13 12
8 9 10 11 13 13 14 13 13 12 11 11 13 16 19 22 23 24 24 24 25 27 28 29 30 31 32 32 33 33 33 32 31 30 28 25 23 20 18 17 15 13 12 12 11 11 11 13 16 17 17 17 16 16 16 15 15 16 16 16 15 15 14 14 14 13 12 12 11
12 11 12 14 15 15 16 16 15 15 14 15 15 18 20 22 24 25 26 26 27 29 31 32 33 34 34 33 32 30 29 27 26 26 25 23 22 21 20 18 17 16 15 14 13 13 14 15 16 16 16 15 15 15 16 15 15 15 16 16 15 14 14 14 13 12 11 11 10
16 15 13 12 12 13 14 15 16 17 17 18 18 19 20 21 23 25 26 27 29 31 33 34 35 34 33 31 28 25 23 22 22 22 22 23 23 22 21 20 19 18 17 15 14 14 13 13 12 11 10 10 11 13 15 15 15 15 15 15 14 14 13 13 12 11 11 10 9
17 16 13 10 9 10 11 13 16 18 20 20 22 22 20 20 21 23 26 28 30 32 34 35 35 33 31 28 24 21 19 18 18 18 19 20 20 19 18 18 18 19 18 16 14 13 11 10 9 8 9 10 12 14 15 16 15 15 15 14 13 13 13 13 12 11 10 10 9
17 16 14 12 10 8 9 11 14 18 21 24 26 26 25 23 23 24 26 29 32 35 36 36 35 32 30 26 23 21 19 18 17 17 17 15 14 14 14 16 18 20 20 19 17 15 13 12 10 11 12 14 15 16 16 16 16 16 15 15 14 13 12 12 11 10 9 9 8
16 16 15 14 13 12 14 15 18 21 26 29 32 33 31 29 28 28 29 31 34 36 36 36 35 33 30 26 23 20 19 19 19 17 16 14 13 14 15 18 20 21 21 20 18 17 15 14 14 16 17 18 18 17 17 16 16 16 17 16 15 13 12 12 11 10 9 9 8
15 16 15 15 15 16 19 22 24 27 30 32 35 36 36 34 34 33 34 34 35 36 36 35 34 32 30 26 23 22 22 22 21 20 18 16 16 17 19 21 22 22 21 20 19 18 18 18 20 21 21 21 20 19 18 17 17 17 17 17 15 14 12 11 10 9 9 8 8
14 15 15 16 17 19 22 24 26 29 32 34 36 37 37 37 38 38 39 38 37 36 35 35 34 31 28 25 23 23 23 24 24 23 21 20 21 22 23 24 24 23 22 22 21 22 22 23 23 23 22 22 21 20 19 17 17 17 17 16 15 14 12 10 9 9 8 8 8
16 16 16 18 20 22 24 26 27 30 33 36 37 38 39 40 41 42 42 40 38 37 35 34 32 29 26 23 23 23 24 25 25 25 25 24 24 25 26 26 25 25 25 25 25 25 25 24 23 22 21 21 21 20 19 18 17 16 16 15 14 13 12 11 10 9 9 8 9
20 19 19 21 23 25 27 29 30 32 35 37 38 39 41 43 43 43 42 40 39 38 36 35 32 29 26 24 24 25 26 27 28 28 27 26 26 26 27 27 28 28 28 28 27 25 24 23 22 21 21 20 20 19 19 17 16 16 15 14 13 13 12 11 10 9 9 9 9
23 22 22 24 26 28 30 32 33 34 36 38 39 41 42 43 44 43 42 41 41 40 39 37 34 31 28 26 26 27 29 30 30 29 28 27 27 28 28 29 30 30 29 27 25 24 22 22 22 22 21 20 20 19 18 17 17 16 15 14 14 13 13 12 11 10 10 10 9
26 24 25 27 29 31 32 33 33 34 36 38 40 41 42 43 44 43 42 42 42 41 39 38 36 33 31 30 30 31 32 32 31 30 28 28 29 30 31 31 31 30 27 25 24 23 23 23 22 22 22 21 20 19 18 17 17 16 16 16 15 14 13 13 12 11 11 10 10
29 28 28 30 31 33 34 35 34 34 36 38 39 40 40 41 43 43 42 42 41 40 39 38 36 34 33 33 34 35 35 34 32 31 30 30 31 32 33 33 32 29 26 24 24 24 23 23 23 22 22 21 20 19 18 17 17 16 16 16 16 15 14 13 13 12 11 11 10
31 31 31 31 32 33 35 36 35 35 36 38 38 38 39 40 41 41 40 40 39 38 38 37 35 34 34 35 36 37 37 36 34 33 32 32 33 34 35 34 32 29 26 25 25 25 24 23 23 22 22 21 20 19 18 17 16 16 16 15 15 15 15 14 13 12 11 11 10
34 34 33 33 32 33 35 37 36 35 36 38 38 38 39 39 39 38 37 37 37 36 36 36 36 35 35 36 38 39 39 38 37 35 35 35 36 37 37 35 32 30 28 28 27 25 24 23 22 22 21 21 21 20 19 18 17 16 15 15 15 15 14 14 13 12 11 9 8
35 35 35 35 36 37 37 37 36 35 36 37 39 39 39 39 38 37 36 36 36 37 38 37 37 36 36 38 38 39 40 40 39 38 38 38 39 39 39 36 33 31 30 29 28 26 24 23 22 21 21 21 20 20 19 18 17 17 16 15 15 14 14 13 12 11 10 8 7
36 36 36 37 38 39 39 38 36 35 36 37 39 40 39 39 38 37 36 36 37 38 39 39 37 37 38 40 40 40 40 41 41 41 40 40 41 41 39 37 34 33 32 30 29 27 25 23 22 21 20 20 20 20 19 19 18 17 17 16 15 14 13 12 11 10 9 7 6
39 38 38 38 39 39 39 39 37 36 36 38 39 39 40 40 40 38 37 37 38 40 41 41 39 39 41 42 42 41 42 43 43 43 42 42 42 41 40 38 36 34 32 31 29 27 26 24 23 22 21 21 20 20 19 19 18 18 17 16 15 14 13 12 11 9 7 6 5
39 39 39 40 40 40 40 39 38 37 37 38 39 40 40 40 40 40 39 39 40 42 43 43 43 42 43 44 45 44 44 44 45 44 43 43 42 41 40 38 36 34 33 31 30 28 26 25 24 23 22 22 21 21 20 19 19 18 17 16 15 14 13 11 10 8 7 5 3
37 40 42 42 41 41 40 39 38 38 39 40 40 40 40 40 40 41 41 41 42 43 44 45 46 46 46 47 47 47 46 45 45 45 44 43 42 41 40 38 37 35 33 32 30 28 27 26 25 24 23 22 22 21 21 20 19 19 18 16 15 14 12 11 9 7 6 4 2
33 39 42 43 43 41 40 39 39 39 40 41 41 41 41 41 42 41 40 40 42 45 46 48 49 50 50 50 50 49 47 45 45 45 44 43 42 41 40 39 37 35 34 32 30 29 27 26 25 24 23 22 21 21 20 20 20 19 18 16 15 13 12 10 8 6 5 3 2
31 35 39 42 42 41 40 40 40 40 42 42 43 44 43 42 42 40 39 40 43 46 49 50 51 52 52 52 52 50 48 46 45 44 43 43 43 42 41 39 37 35 34 32 30 29 28 26 25 23 22 22 21 20 20 19 19 19 18 16 15 13 11 9 8 6 4 3 2
34 36 37 38 39 40 40 40 40 41 42 43 45 45 45 43 42 41 40 41 44 47 50 51 52 53 54 54 52 50 48 46 44 43 43 43 43 43 41 39 36 35 33 32 30 29 28 27 25 24 22 21 21 20 19 19 18 18 17 16 14 13 11 9 7 5 4 3 4
38 39 39 38 38 38 39 39 40 41 42 43 45 46 45 44 43 42 41 43 45 48 51 52 52 53 54 54 52 49 47 46 44 44 43 43 44 43 41 38 36 34 32 31 29 28 26 26 25 24 23 22 21 20 19 18 18 17 16 15 14 12 11 9 7 6 5 5 5
36 40 42 42 41 39 39 39 40 42 43 44 45 45 45 45 43 43 43 44 46 49 51 52 52 52 53 52 50 48 46 45 44 44 44 44 44 42 40 38 36 34 32 30 28 27 25 25 24 24 23 22 21 21 20 19 18 16 15 13 12 11 10 9 8 7 6 7 8
34 39 42 44 43 41 40 41 42 43 44 44 44 45 45 44 43 43 44 45 47 49 51 51 50 50 51 50 49 47 46 44 44 44 45 45 45 43 40 37 35 34 32 30 28 26 25 24 23 22 22 22 21 21 21 20 18 16 14 13 11 10 8 8 7 8 8 9 10
29 34 39 41 42 42 43 43 43 44 44 44 45 45 44 44 42 43 44 45 47 48 48 48 48 48 49 48 48 47 46 44 43 44 45 45 44 42 39 37 35 34 32 30 28 26 25 23 22 22 21 21 21 21 20 20 19 17 15 13 11 9 8 7 7 8 9 10 11
24 29 34 36 39 41 43 44 44 45 45 44 45 44 43 42 42 42 43 45 46 47 46 46 46 47 47 46 47 47 46 44 43 43 44 45 44 42 39 37 36 34 32 30 28 26 24 23 22 21 21 20 20 20 20 19 18 16 14 12 10 9 8 7 8 8 9 10 11
20 24 30 33 36 38 41 42 43 44 44 43 42 42 41 41 41 42 43 44 46 47 47 46 46 45 46 46 46 46 45 43 42 42 43 44 43 42 39 37 35 34 32 30 28 26 25 23 22 21 21 20 20 20 20 18 17 16 14 12 10 9 8 8 8 9 10 10 11
18 21 27 32 34 35 37 39 40 41 41 40 40 40 40 40 40 42 43 45 46 47 46 45 45 45 46 46 45 45 43 42 41 42 43 43 43 41 39 37 35 33 31 30 28 26 25 24 23 22 21 20 20 19 19 18 16 14 13 11 10 9 8 8 8 9 9 10 11
18 20 26 31 34 35 36 37 38 38 38 38 39 40 40 39 40 41 43 44 45 45 43 42 43 44 44 44 44 44 42 40 40 41 43 43 43 41 39 36 34 33 31 29 28 26 25 24 23 22 21 20 20 19 18 17 15 14 12 11 10 9 8 8 8 8 9 9 10
18 20 24 29 33 35 37 37 37 37 38 38 39 40 39 39 39 40 41 42 44 44 43 42 42 43 43 43 43 42 41 40 40 41 42 43 42 40 37 35 33 32 31 29 28 27 26 25 24 23 22 21 20 19 18 17 15 14 13 12 11 10 9 8 8 8 8 8 8
21 20 21 26 31 34 36 38 39 39 40 39 40 40 40 39 38 38 39 41 43 44 44 44 44 44 44 44 43 41 39 38 40 41 42 42 41 39 36 33 32 31 31 29 28 27 26 25 24 24 23 21 20 19 18 16 15 14 13 13 12 11 10 9 8 8 8 8 8
24 22 22 24 28 31 34 36 39 41 42 41 41 41 40 40 40 40 41 42 43 43 43 43 43 42 42 42 42 41 39 38 38 40 41 41 40 37 35 33 32 31 30 29 28 27 26 26 25 24 23 22 20 19 17 16 15 14 14 13 12 11 10 9 9 8 8 7 7
26 26 27 28 30 31 33 34 38 40 42 43 43 42 41 41 41 42 43 44 43 41 40 39 39 38 37 37 37 38 38 38 39 40 41 40 39 37 35 33 32 31 30 29 28 27 26 26 25 24 23 21 20 18 17 16 15 14 13 13 12 11 10 9 9 8 8 7 6
29 30 32 33 33 33 33 34 36 38 40 42 44 43 42 42 41 42 43 43 42 41 39 38 37 36 35 35 35 36 38 39 40 40 40 40 38 37 36 34 32 31 30 29 28 27 26 26 25 24 22 21 20 18 17 16 15 14 14 13 12 11 10 9 9 8 7 7 6
30 32 34 36 34 33 33 34 36 38 40 41 42 43 43 42 41 42 43 43 43 41 40 39 38 37 36 36 36 36 37 39 41 41 40 39 38 37 37 36 33 31 30 29 28 27 26 25 24 22 21 20 19 18 17 16 15 15 14 13 13 11 10 9 8 8 7 6 5
29 32 34 35 34 33 32 33 36 39 41 41 41 42 42 41 41 42 44 45 45 44 43 41 40 38 37 36 35 35 36 38 40 41 40 39 38 37 37 36 34 32 30 28 27 26 25 24 22 20 19 18 17 17 16 16 15 15 14 14 13 12 11 9 8 8 7 7 5
26 30 33 35 35 34 33 33 36 40 42 42 42 41 42 42 43 44 44 45 45 45 44 43 41 39 37 36 35 35 35 35 37 38 39 38 38 37 36 36 34 32 30 28 27 25 24 23 21 19 18 16 16 15 15 15 15 15 15 14 13 13 11 10 9 8 8 8 7
26 29 32 35 37 37 36 35 37 39 41 42 43 42 43 44 44 44 43 43 43 43 42 42 41 39 37 36 35 35 35 33 34 35 37 37 37 36 36 35 34 32 30 28 26 25 23 22 21 19 17 16 15 15 14 15 16 16 16 14 13 13 12 11 9 8 8 8 7
Wind_Direction
105 126 146 157 152 139 131 130 129 129 131 139 159 172 174 171 164 158 157 159 156 152 149 149 146 146 146 145 142 139 136 134 129 126 125 124 121 119 116 113 116 118 120 124 126 127 130 141 154 157 153 147 144 141 140 142 145 147 147 145 144 145 146 146 145 145 145 145 144
128 126 128 133 132 127 124 122 122 125 130 138 150 158 160 158 152 148 148 150 150 147 144 140 140 139 137 136 134 131 130 129 128 127 126 123 116 109 103 97 98 101 105 110 115 124 138 152 157 152 145 141 140 138 137 139 143 144 141 139 138 139 141 141 142 143 144 143 140
162 150 137 133 127 123 122 123 126 131 136 140 148 151 151 149 145 143 143 145 147 144 138 135 135 134 132 130 129 128 127 126 126 125 121 115 109 103 99 95 93 92 95 102 114 128 141 148 147 142 138 137 138 137 136 138 140 139 137 135 136 138 140 140 140 141 142 140 138
169 161 151 144 138 136 136 138 141 142 142 143 147 153 155 152 146 145 148 149 148 141 135 133 132 132 131 129 128 127 127 125 124 121 118 114 112 111 110 109 107 106 109 115 127 139 148 152 150 148 148 150 152 149 145 142 141 139 136 134 136 139 141 140 140 141 142 140 138
173 175 176 180 174 164 158 156 154 152 150 152 152 153 154 153 152 153 153 148 140 136 134 133 132 131 130 129 127 125 122 119 121 121 119 116 117 120 123 125 127 131 136 143 156 170 181 187 186 181 177 177 171 162 154 149 146 142 139 138 140 142 143 142 142 143 144 142 140
187 193 201 207 212 200 181 176 175 172 170 170 167 163 160 160 159 153 144 139 136 135 134 133 132 131 130 128 125 123 121 120 123 124 124 125 129 135 141 145 147 150 156 165 177 190 199 201 196 190 184 177 169 162 157 155 150 147 144 144 145 146 147 145 145 146 146 145 143
206 213 217 212 213 206 197 193 190 186 181 178 174 170 167 165 161 154 147 142 138 137 136 136 135 134 132 131 130 132 135 138 141 142 144 147 151 155 157 158 159 163 170 180 189 195 196 194 189 182 177 172 164 160 159 159 156 152 150 148 148 149 149 147 148 148 148 147 146
211 218 218 206 201 194 187 183 180 177 174 172 172 171 171 169 165 160 154 149 145 144 144 144 143 141 141 142 145 151 156 159 161 163 164 165 165 164 163 164 168 174 182 187 188 186 185 185 183 178 172 168 163 160 159 161 159 156 152 149 148 149 149 149 149 150 150 149 148
206 214 215 205 198 190 183 180 177 173 170 168 171 173 174 172 168 163 159 156 154 153 152 151 150 149 149 153 159 164 168 170 171 173 174 173 170 167 167 169 174 180 184 184 182 180 179 179 176 173 169 166 162 160 160 162 160 157 154 151 149 149 149 150 151 152 152 152 149
205 211 209 199 193 187 183 179 179 176 172 170 172 174 174 172 169 165 163 162 161 159 158 157 156 156 157 162 168 173 175 177 178 179 178 175 171 169 171 174 177 179 180 179 177 175 174 172 169 167 165 164 161 160 161 163 161 158 155 153 151 150 150 151 153 153 153 153 151
203 207 201 191 188 184 179 176 176 175 173 172 172 172 172 171 169 167 166 165 163 162 163 165 165 165 167 172 176 180 182 184 184 183 179 175 172 172 174 176 177 177 176 175 173 170 168 167 165 163 163 163 162 162 162 163 162 159 156 155 155 154 152 152 154 155 154 153 152
196 197 194 187 184 180 176 173 172 172 173 172 172 172 172 171 171 170 169 167 166 167 170 172 173 174 175 178 182 185 187 188 187 184 178 174 172 174 176 177 176 173 170 169 167 166 165 164 163 163 163 163 163 163 163 162 162 160 158 158 158 158 157 156 156 156 156 154 153
190 189 186 182 180 178 175 173 172 172 172 172 172 172 171 172 172 172 171 170 170 172 174 176 177 178 179 182 185 187 189 189 187 182 177 174 174 176 177 176 172 168 166 165 164 163 163 163 163 163 164 164 164 164 163 162 162 162 161 161 162 162 162 160 158 157 156 155 153
189 186 181 179 177 176 176 175 174 173 173 173 173 173 173 173 173 173 173 173 173 174 175 176 178 180 182 185 186 188 188 188 185 180 176 175 176 177 176 172 168 165 164 165 163 162 162 162 163 163 163 164 164 164 163 163 163 164 164 164 165 164 164 162 161 159 158 156 155
187 184 181 180 179 177 176 176 176 176 176 175 176 175 175 175 176 176 176 175 175 175 176 176 178 182 185 187 187 187 187 185 181 178 176 176 178 177 174 169 166 165 166 165 163 162 161 162 162 162 163 163 164 164 164 164 164 165 166 166 166 166 165 163 162 161 160 160 158
186 184 184 184 185 182 178 177 178 179 179 178 179 178 177 177 178 178 178 177 176 176 176 177 179 182 186 187 187 186 184 182 179 176 176 177 178 176 172 168 167 167 166 164 162 162 162 162 162 163 163 163 164 164 164 165 165 166 166 166 166 165 164 163 163 162 163 163 161
191 189 189 188 187 185 182 181 182 182 181 180 180 179 179 178 179 179 179 178 177 176 176 177 180 182 183 184 185 184 181 179 177 176 176 177 177 175 172 169 168 166 165 163 163 163 164 165 165 166 166 165 165 164 165 165 166 166 165 165 165 164 164 163 164 164 164 164 162
200 196 194 192 190 187 185 184 185 184 183 181 181 180 179 179 179 179 180 180 179 178 177 178 180 181 181 181 181 180 179 177 176 176 176 177 176 174 171 169 167 165 164 163 163 164 165 167 168 169 169 168 166 165 165 165 165 165 165 165 164 164 163 163 165 165 165 163 160
205 201 197 195 193 191 189 187 186 185 184 183 181 180 179 179 179 179 180 182 181 180 179 178 179 179 179 178 178 178 177 176 176 176 176 176 176 174 171 168 166 165 165 164 164 165 166 168 170 171 171 170 168 167 166 166 165 165 165 164 164 164 164 165 165 166 165 162 157
207 203 200 198 197 195 193 191 188 186 184 183 181 180 179 179 179 179 180 182 183 182 180 178 177 177 177 177 177 177 176 176 176 176 176 176 176 174 172 168 166 166 166 166 166 166 167 169 171 172 172 171 169 168 167 166 165 164 164 164 164 164 165 165 166 166 165 162 153
211 206 202 200 199 197 195 193 191 187 184 182 181 180 179 179 180 180 180 181 182 181 179 177 175 175 175 176 176 176 175 175 175 176 176 177 177 175 172 168 167 167 167 167 168 168 169 170 171 172 172 172 170 168 167 166 165 164 164 164 164 164 165 165 166 165 163 155 138
221 211 205 202 201 199 196 194 191 187 183 182 181 181 181 181 181 181 181 181 181 180 178 176 174 174 175 175 175 175 174 174 175 176 177 178 177 174 171 168 168 168 169 169 170 170 170 171 171 172 172 172 171 170 169 167 166 165 164 163 163 163 164 164 164 163 158 142 105
235 223 212 205 201 197 194 192 189 186 183 182 182 182 182 182 182 182 181 180 180 179 177 175 174 174 175 175 175 174 174 174 176 177 178 179 177 174 171 169 169 169 170 171 171 171 171 171 171 172 173 173 172 171 170 169 168 166 165 164 163 162 162 162 161 157 148 126 100
243 233 222 211 201 194 191 189 187 185 183 182 183 182 182 182 182 182 181 180 179 178 176 175 174 174 175 175 174 174 174 175 177 178 179 179 176 174 171 169 170 170 171 172 172 172 172 171 171 172 173 173 172 172 171 170 169 168 166 165 163 162 160 158 156 149 136 116 104
239 232 224 214 201 192 188 186 185 184 184 184 183 182 181 181 181 181 181 180 179 178 176 175 174 175 175 175 174 174 175 176 178 178 179 178 176 173 171 170 171 172 172 173 173 174 174 173 172 172 173 173 172 171 170 171 170 169 168 167 165 163 160 156 151 143 128 114 106
233 225 218 210 199 190 186 185 186 186 186 185 183 181 181 180 180 180 180 179 179 178 176 175 175 175 175 174 174 174 176 177 178 178 178 176 174 172 171 171 172 173 174 174 175 175 176 175 174 173 173 173 172 171 170 169 170 170 169 168 167 166 163 157 149 139 128 118 114
230 220 212 204 194 187 186 187 188 188 187 184 181 179 179 179 178 178 178 178 178 177 176 175 175 175 174 173 173 174 176 178 179 178 177 175 173 172 172 173 174 174 175 175 175 176 177 177 176 176 175 174 173 171 169 168 168 168 168 167 167 166 164 158 149 141 133 128 126
231 217 207 199 190 186 187 189 189 188 186 183 179 178 177 177 176 177 177 177 176 176 175 175 176 175 174 174 174 175 177 177 178 178 176 174 172 172 174 175 175 176 176 176 176 176 177 177 177 177 176 174 172 171 169 167 166 166 166 165 164 162 159 153 146 141 138 136 136
235 217 204 195 188 186 186 187 188 186 184 180 177 175 174 175 175 176 176 175 175 175 175 175 176 176 175 174 175 176 177 177 177 177 175 173 172 173 174 176 176 176 176 176 175 175 176 177 177 176 175 174 171 169 168 167 166 165 164 163 161 157 153 148 144 142 141 141 141
242 217 200 192 187 185 185 185 185 183 180 176 174 172 172 173 175 175 174 174 174 175 176 175 175 175 175 175 175 176 176 175 176 176 174 173 172 173 174 175 176 175 175 175 174 174 175 175 175 174 173 172 170 168 167 166 166 164 162 159 156 153 149 146 145 144 145 145 145
247 218 197 186 181 180 181 182 181 178 174 172 171 171 172 173 174 175 175 174 175 176 176 175 175 175 175 175 175 175 174 174 175 175 174 172 172 172 173 174 175 174 173 173 173 173 173 173 172 172 170 170 168 166 165 164 163 161 157 154 151 148 145 144 144 145 147 149 150
247 221 199 184 177 176 176 177 176 173 171 170 171 172 173 174 175 175 175 175 174 174 175 175 175 174 174 174 174 174 174 173 174 174 174 173 171 171 171 172 172 172 172 172 171 171 171 171 170 169 167 166 165 163 161 159 157 153 149 146 144 143 142 143 144 146 148 152 155
249 225 204 187 178 175 174 175 173 172 172 172 173 173 174 174 174 174 173 173 172 172 173 174 173 172 171 172 172 173 173 173 174 174 173 172 171 169 168 168 169 170 170 170 170 169 169 168 167 166 164 163 161 159 157 154 150 147 143 141 140 139 140 141 144 147 150 154 158
258 237 214 195 183 177 175 174 174 174 174 174 175 174 173 172 171 170 170 171 171 172 174 174 173 173 172 173 172 172 172 173 173 173 172 171 169 167 165 164 165 167 168 168 168 167 167 166 165 163 161 160 158 156 154 151 147 144 142 142 141 141 142 144 146 149 153 157 161
256 242 223 206 192 183 178 176 175 175 175 175 174 174 172 171 170 170 170 171 171 172 173 174 174 173 173 174 173 172 171 171 171 171 170 169 166 164 162 162 163 164 166 167 166 165 165 164 163 161 160 158 155 152 151 148 145 144 143 144 144 144 146 148 150 152 155 159 163
249 238 225 212 200 190 183 179 177 176 174 173 173 172 171 171 171 171 171 170 169 168 169 170 171 171 171 171 172 171 171 170 169 169 168 167 164 162 160 160 161 162 165 166 165 164 164 163 161 160 158 156 152 150 148 146 144 143 144 145 145 146 148 150 152 154 156 160 164
241 231 219 208 198 190 184 180 177 175 173 172 171 170 169 168 169 170 169 167 164 164 165 168 169 170 171 171 170 171 172 171 169 167 166 165 163 161 160 159 159 161 163 165 164 164 163 162 160 159 158 155 151 149 146 145 144 144 146 147 146 146 148 151 153 155 157 160 167
231 221 209 198 189 182 179 178 176 174 172 171 170 169 168 166 166 167 167 165 163 162 164 167 169 171 172 172 171 171 172 172 170 167 165 164 164 162 160 158 158 159 162 164 164 163 162 161 160 159 158 155 151 149 147 146 145 146 147 148 146 146 148 151 154 154 155 158 165
222 210 199 187 178 175 175 176 175 174 172 169 168 167 166 164 164 166 167 167 166 166 166 168 170 172 173 173 170 169 169 170 170 168 166 164 165 165 163 160 158 159 161 163 163 162 161 159 158 158 157 154 151 149 148 147 147 147 148 148 147 147 148 152 156 158 155 153 154
221 206 193 182 175 173 175 177 178 176 172 169 166 164 164 165 165 166 167 168 169 169 169 169 170 171 172 171 168 166 166 167 168 168 166 165 165 166 165 162 158 158 159 161 162 161 159 157 156 155 154 152 149 148 148 148 148 147 147 148 148 148 149 152 159 163 162 157 156
225 208 195 184 178 176 177 180 180 178 174 169 166 165 166 167 166 165 165 166 167 167 167 167 167 168 169 169 167 164 163 164 165 165 165 164 164 164 164 162 158 157 157 159 160 159 157 155 154 153 152 150 149 149 150 150 149 148 148 148 148 149 151 154 160 166 171 173 172